STARLINK-30550, 58045

Orbit data source: Space-Track

STARLINK-30550, 58045 is a payload satellite owned by SpaceX/Seattle (US) in LEO that was launched on Mon, 09 Oct 2023 UTC via an FALCON 9 launch vehicle from the Air Force Western Test Range (AFWTR). Payload-class satellites include a variety of spacecraft equipped with specific instruments for various scientific and technological missions. These include communications satellites like Starlink; space stations such as the ISS; scientific satellites like the Hubble; Earth observation satellites from companies like Planet Labs, Umbra, and HawkEye 360; GPS; miniature CubeSats for education and research; and military/defense satellites.

Loading next visibility...
Identifier
58045, 2023-156T
Orbit
LEO
Country
Flag of USUS
Related business
Manufacturer
SpaceX/Seattle
Mission
Operational Commercial Communications
Bus & Motor
STARLINK V2M, Unknown motor
Mass
730 kg wet, ~700 kg dry
Launch date (UTC)
2023-10-09 (2 years ago)
Launch vehicle
FALCON 9
Launch site
Air Force Western Test Range (AFWTR)
Object type
Payload
Rocket body
Debris
Shape & HBR
Box + 2 Pan, 17.7 m
Radar Cross Section
33.884 m², Large (>1 m²)

Expand to show TLE details & history
Last TLE update: 19 hours ago

TLE from 19 hours ago
0 STARLINK-30550
1 58045U 23156T   25348.83249737  .00001455  00000-0  61256-4 0  9993
2 58045  53.1619  35.5045 0001234  95.4396 264.6746 15.30193444124384
Epoch: 2025-12-14T19:58Z
TLE epoch observation values (Epoch: 2025-12-14T19:58:47.772Z)
Latitude
-0°
Longitude
12.06569°
Altitude
476.213 km
Speed
7.629 km/s
True Right ascension
02h 22m 01s
True Declination
0° 00' 00"
Sunlit
Object was in full shadow at epoch
Visualization orbit readout
Latitude
Unknown
Longitude
Unknown
Altitude
Unknown
Speed
Unknown
Apparent Right ascension
Unknown
Apparent Declination
Unknown
Sunlit
N/A
Visualization observer readout
Local Sidereal Time
13:19:02
Azimuth
Unknown
Elevation
Unknown
Doppler factor
Unknown
Orbital elements
Apogee altitude
476.337 km
Perigee altitude
474.645 km
Semi-major axis
6,853.628 km
Eccentricity
0.00012
Inclination
53.1619°
RAAN
35.5045°
Arg. of periapsis
95.4396°
True anomaly
264.66052°
Mean anomaly
264.6746°
Eccentric anomaly
264.66756°
Mean motion
3.82527 °/min
Orbital period
94.11 mins
BSTAR
0.000061256
Loading maneuver chart data...
Computing Atmospheric mass density...
Loading historical data...
Loading historical data...
Loading historical data...
Loading historical data...
Loading historical data...
Loading historical data...
Loading historical data...

Documentation

Showing up to 5 results
|